Location: Toronto
(43.6672°N, 79.4170°W)
Time: 16:09:15
(UTC-05:00)

ISS - All Passes

Search period start: 11 February 2016 00:00
Search period end: 21 February 2016 00:00
Orbit: 399 x 407 km, 51.6° (Epoch: 11 February)

Date Brightness Start Highest point End Pass type
(mag) Time Alt. Az. Time Alt. Az. Time Alt. Az.
11 Feb - 14:35:16 10° S 14:37:22 16° SE 14:39:29 10° E daylight
11 Feb - 16:10:15 10° WSW 16:13:29 68° NNW 16:16:44 10° NE daylight
11 Feb - 17:47:43 10° WNW 17:50:21 22° N 17:53:00 10° NE daylight
11 Feb - 19:24:57 10° NW 19:27:35 22° N 19:30:10 10° ENE visible
11 Feb - 21:01:15 10° NW 21:04:28 63° NNE 21:07:41 10° ESE visible
11 Feb - 22:38:21 10° W 22:40:37 18° SW 22:42:53 10° S night (unlit)
12 Feb - 15:17:33 10° SW 15:20:46 67° SE 15:24:00 10° ENE daylight
12 Feb - 16:54:35 10° WNW 16:57:26 27° NNW 17:00:17 10° NE daylight
12 Feb - 18:32:08 10° NW 18:34:36 20° N 18:37:05 10° NE visible
12 Feb - 20:08:35 10° NW 20:11:40 39° NNE 20:14:45 10° E visible
12 Feb - 21:45:07 10° WNW 21:48:04 32° SW 21:51:00 10° SSE night (unlit)
13 Feb - 14:25:06 10° SSW 14:28:06 35° SE 14:31:07 10° ENE daylight
13 Feb - 16:01:29 10° W 16:04:32 37° NNW 16:07:36 10° NE daylight
13 Feb - 17:39:08 10° NW 17:41:37 20° N 17:44:05 10° NE daylight
13 Feb - 19:15:53 10° NW 19:18:46 28° NNE 19:21:38 10° E visible
13 Feb - 20:52:11 10° WNW 20:55:24 61° SW 20:58:35 10° SE visible
14 Feb - 13:33:04 10° S 13:35:28 19° SE 13:37:54 10° E daylight
14 Feb - 15:08:27 10° WSW 15:11:40 58° NNW 15:14:53 10° NE daylight
14 Feb - 16:45:59 10° WNW 16:48:35 21° N 16:51:10 10° NE daylight
14 Feb - 18:23:07 10° NW 18:25:47 23° NNE 18:28:26 10° ENE visible
14 Feb - 19:59:22 10° NW 20:02:38 74° NNE 20:05:52 10° ESE visible
14 Feb - 21:36:46 10° W 21:38:41 15° SW 21:40:37 10° S night (unlit)
15 Feb - 12:42:16 10° SE 12:42:54 10° SE 12:43:32 10° ESE daylight
15 Feb - 14:15:34 10° SW 14:18:49 81° SSE 14:22:05 10° ENE daylight
15 Feb - 15:52:45 10° WNW 15:55:32 25° NNW 15:58:20 10° NE daylight
15 Feb - 17:30:13 10° NW 17:32:43 20° N 17:35:14 10° NE daylight
15 Feb - 19:06:35 10° NW 19:09:44 44° NNE 19:12:52 10° E visible
15 Feb - 20:43:15 10° WNW 20:46:03 27° SW 20:48:51 10° SSE visible
16 Feb - 13:22:55 10° SSW 13:26:01 42° SE 13:29:07 10° ENE daylight
16 Feb - 14:59:31 10° W 15:02:31 33° NNW 15:05:31 10° NE daylight
16 Feb - 16:37:09 10° NW 16:39:37 19° N 16:42:05 10° NE daylight
16 Feb - 18:13:48 10° NW 18:16:45 31° NNE 18:19:40 10° E visible
16 Feb - 19:50:08 10° WNW 19:53:18 50° SW 19:56:27 10° SE visible
17 Feb - 12:30:37 10° S 12:33:16 23° SE 12:35:54 10° E daylight
17 Feb - 14:06:20 10° WSW 14:09:31 50° NNW 14:12:42 10° NE daylight
17 Feb - 15:43:55 10° WNW 15:46:28 21° N 15:49:01 10° NE daylight
17 Feb - 17:20:56 10° NW 17:23:40 24° NNE 17:26:23 10° ENE daylight
17 Feb - 18:57:11 10° WNW 19:00:26 86° NNE 19:03:41 10° ESE visible
17 Feb - 20:34:58 10° WSW 20:36:25 12° SW 20:37:52 10° SSW visible
18 Feb - 11:39:04 10° SSE 11:40:33 13° SE 11:42:02 10° ESE daylight
18 Feb - 13:13:16 10° WSW 13:16:32 86° NNW 13:19:49 10° ENE daylight
18 Feb - 14:50:35 10° WNW 14:53:19 24° NNW 14:56:02 10° NE daylight
18 Feb - 16:27:58 10° NW 16:30:30 21° N 16:33:03 10° ENE daylight
18 Feb - 18:04:17 10° NW 18:07:28 50° NNE 18:10:38 10° ESE daylight
18 Feb - 19:41:05 10° W 19:43:42 23° SW 19:46:19 10° S visible
19 Feb - 12:20:27 10° SW 12:23:37 51° SE 12:26:47 10° ENE daylight
19 Feb - 13:57:13 10° W 14:00:10 31° NNW 14:03:07 10° NE daylight
19 Feb - 15:34:49 10° NW 15:37:17 19° N 15:39:45 10° NE daylight
19 Feb - 17:11:23 10° NW 17:14:22 33° NNE 17:17:22 10° E daylight
19 Feb - 18:47:46 10° WNW 18:50:52 42° SW 18:53:56 10° SSE visible
20 Feb - 11:27:55 10° SSW 11:30:43 27° SE 11:33:33 10° ENE daylight
20 Feb - 13:03:53 10° W 13:07:02 44° NNW 13:10:11 10° NE daylight
20 Feb - 14:41:31 10° NW 14:44:02 20° N 14:46:33 10° NE daylight
20 Feb - 16:18:25 10° NW 16:21:12 25° NNE 16:23:59 10° ENE daylight
20 Feb - 17:54:39 10° WNW 17:57:55 81° SSW 18:01:09 10° SE daylight
20 Feb - 19:33:15 10° WSW 19:33:49 10° SW 19:34:24 10° SW visible
